STARLINK-34861, 66368

Orbit data source: Space-Track

STARLINK-34861, 66368 is a payload satellite owned by SpaceX/Seattle (US) in LEO that was launched on Thu, 06 Nov 2025 UTC via an FALCON 9 launch vehicle from the Air Force Western Test Range (AFWTR). Payload-class satellites include a variety of spacecraft equipped with specific instruments for various scientific and technological missions. These include communications satellites like Starlink; space stations such as the ISS; scientific satellites like the Hubble; Earth observation satellites from companies like Planet Labs, Umbra, and HawkEye 360; GPS; miniature CubeSats for education and research; and military/defense satellites.

Loading next visibility...
Identifier
66368, 2025-254W
Orbit
LEO
Country
Flag of USUS
Related business
Manufacturer
SpaceX/Seattle
Mission
Operational Commercial Communications
Bus & Motor
STARLINK V2MO, Unknown motor
Mass
575 kg wet, ~530 kg dry
Launch date (UTC)
2025-11-06 (7 months ago)
Launch vehicle
FALCON 9
Launch site
Air Force Western Test Range (AFWTR)
Object type
Payload
Rocket body
Debris
Shape & HBR
Box + 2 Pan, 17.7 m
Radar Cross Section
36.964 m², Large (>1 m²)

Expand to show TLE details & history
Last TLE update: 1 day ago

TLE from 1 day ago
0 STARLINK-34861
1 66368U 25254W   26170.55592031  .00011678  00000-0  40573-3 0  9998
2 66368  53.1576 116.9923 0001240  93.8416 266.2726 15.30203913 34608
Epoch: 2026-06-19T13:20Z
TLE epoch observation values (Epoch: 2026-06-19T13:20:31.514Z)
Latitude
-0.00008°
Longitude
9.07773°
Altitude
476.158 km
Speed
7.629 km/s
True Right ascension
07h 47m 58s
True Declination
0° 00' 00"
Sunlit
Object was in daylight at epoch
Visualization orbit readout
Latitude
Unknown
Longitude
Unknown
Altitude
Unknown
Speed
Unknown
Apparent Right ascension
Unknown
Apparent Declination
Unknown
Sunlit
N/A
Visualization observer readout
Local Sidereal Time
07:16:45
Azimuth
Unknown
Elevation
Unknown
Doppler factor
Unknown
Orbital elements
Apogee altitude
476.31 km
Perigee altitude
474.61 km
Semi-major axis
6,853.597 km
Eccentricity
0.00012
Inclination
53.1576°
RAAN
116.9923°
Arg. of periapsis
93.8416°
True anomaly
266.25842°
Mean anomaly
266.2726°
Eccentric anomaly
266.26551°
Mean motion
3.8253 °/min
Orbital period
94.11 mins
BSTAR
0.00040573
Loading maneuver chart data...
Computing Atmospheric mass density...
Loading historical data...
Loading historical data...
Loading historical data...
Loading historical data...
Loading historical data...
Loading historical data...
Loading historical data...

Documentation

Showing up to 5 results
|